EW7614 Weather Reports


Display with metric or nautical units.
time (UTC)temp
F
wind
direction
speed
MPH
gust
MPH
rain 1hr
in
rain 24hr
in
rain mn
in
humidity
%
barometer
mb
20230129193004 20 135 0.0 0.0 0.00 0.00 0.00 92 1027.4
20230129191503 20 135 0.0 0.0 0.00 0.00 0.00 94 1027.3
20230129190004 20 158 0.0 0.0 0.00 0.00 0.00 93 1027.2
20230129184505 20 151 0.0 0.0 0.00 0.00 0.00 92 1027.2
20230129183001 20 150 0.0 0.0 0.00 0.00 0.00 92 1027.0
20230129181600 20 150 0.0 0.0 0.00 0.00 0.00 91 1027.0
20230129180059 22 150 0.0 0.0 0.00 0.00 0.00 89 1027.0
20230129174605 22 150 0.0 0.0 0.00 0.00 0.00 89 1027.0
20230129173058 23 150 0.0 0.0 0.00 0.00 0.00 88 1027.0
20230129171558 23 150 0.0 0.0 0.00 0.00 0.00 88 1027.0
20230129170102 23 150 0.0 0.0 0.00 0.00 0.00 88 1026.8
20230129164623 23 151 0.0 0.0 0.00 0.00 0.00 86 1026.6
20230129163054 24 151 0.0 0.0 0.00 0.00 0.00 86 1026.6
20230129161553 24 151 0.0 0.0 0.00 0.00 0.00 85 1026.6
20230129160110 25 151 0.0 0.0 0.00 0.00 0.00 83 1026.4
20230129154556 26 151 0.0 0.0 0.00 0.00 0.00 81 1026.5
20230129153052 26 77 0.0 1.0 0.00 0.00 0.00 78 1026.4
20230129151550 27 77 0.0 0.0 0.00 0.00 0.00 77 1026.3
20230129150057 28 77 0.0 0.0 0.00 0.00 0.00 76 1026.2
20230129144558 28 77 0.0 0.0 0.00 0.00 0.00 75 1026.0
20230129143049 28 77 0.0 0.0 0.00 0.00 0.00 75 1025.9
20230129141554 28 77 0.0 1.0 0.00 0.00 0.00 75 1026.0
20230129140045 28 174 0.0 0.0 0.00 0.00 0.00 76 1026.2
20230129134543 27 174 0.0 0.0 0.00 0.00 0.00 78 1026.2
20230129133040 26 174 0.0 0.0 0.00 0.00 0.00 81 1026.2
20230129131537 26 174 0.0 0.0 0.00 0.00 0.00 80 1026.4
20230129130038 26 210 0.0 0.0 0.00 0.00 0.00 82 1026.6
20230129124543 25 210 0.0 1.0 0.00 0.00 0.00 82 1026.7
20230129123032 25 210 0.0 0.0 0.00 0.00 0.00 83 1027.0
20230129121528 24 210 0.0 1.0 0.00 0.00 0.00 83 1027.3
20230129120028 24 211 0.0 0.0 0.00 0.00 0.00 84 1027.6
20230129114529 23 211 0.0 0.0 0.00 0.00 0.00 85 1028.0
20230129113026 23 211 0.0 0.0 0.00 0.00 0.00 86 1028.3
20230129111534 23 262 0.0 0.0 0.00 0.00 0.00 85 1028.4
20230129110026 23 262 0.0 0.0 0.00 0.00 0.00 86 1028.5
20230129104524 23 262 0.0 0.0 0.00 0.00 0.00 85 1028.6
20230129103032 22 262 0.0 0.0 0.00 0.00 0.00 85 1028.6
20230129101522 22 262 0.0 0.0 0.00 0.00 0.00 88 1028.9
20230129100027 21 263 0.0 0.0 0.00 0.00 0.00 89 1029.1
20230129094520 21 263 0.0 0.0 0.00 0.00 0.00 93 1029.3
20230129093029 18 263 0.0 0.0 0.00 0.00 0.00 93 1029.3
20230129091518 17 263 0.0 0.0 0.00 0.00 0.00 94 1029.0
20230129090018 15 262 0.0 0.0 0.00 0.00 0.00 92 1028.8
20230129084522 16 48 0.0 0.0 0.00 0.00 0.00 94 1028.7
20230129083017 15 48 0.0 0.0 0.00 0.00 0.00 93 1028.7
20230129081513 16 48 0.0 0.0 0.00 0.00 0.00 93 1028.8
20230129080024 16 48 0.0 1.0 0.00 0.00 0.00 94 1028.8
20230129074511 16 44 0.0 0.0 0.00 0.00 0.00 93 1028.8
20230129073010 16 44 0.0 0.0 0.00 0.00 0.00 93 1028.8
20230129071509 17 43 0.0 0.0 0.00 0.00 0.00 94 1028.9
20230129070007 17 43 0.0 0.0 0.00 0.00 0.00 94 1029.2
20230129064509 17 43 0.0 0.0 0.00 0.00 0.00 92 1029.2
20230129063005 18 46 0.0 0.0 0.00 0.00 0.00 93 1029.2
20230129061504 18 355 0.0 0.0 0.00 0.00 0.00 93 1029.1
20230129060003 17 285 0.0 0.0 0.00 0.00 0.00 91 1029.1
20230129054610 18 285 0.0 0.0 0.00 0.00 0.00 93 1028.9
20230129053058 18 284 0.0 0.0 0.00 0.00 0.00 93 1028.5
20230129051610 18 285 0.0 1.0 0.00 0.00 0.00 91 1028.2
20230129050055 19 266 0.0 0.0 0.00 0.00 0.00 92 1028.0
20230129044554 18 265 0.0 1.0 0.00 0.00 0.00 90 1028.2
20230129043104 19 136 0.0 1.0 0.00 0.00 0.00 93 1028.1
20230129041557 18 265 0.0 3.0 0.00 0.00 0.00 93 1028.3
20230129040059 19 119 0.0 1.0 0.00 0.00 0.00 95 1028.1
20230129034552 17 246 0.0 1.0 0.00 0.00 0.00 93 1028.2
20230129033054 18 226 0.0 0.0 0.00 0.00 0.00 94 1027.9
20230129031548 18 274 0.0 1.0 0.00 0.00 0.00 90 1028.0
20230129030048 20 85 0.0 1.0 0.00 0.00 0.00 94 1027.9
20230129024551 20 151 0.0 0.0 0.00 0.00 0.00 94 1027.9
20230129023043 20 153 0.0 0.0 0.00 0.00 0.00 94 1027.9
20230129021545 22 360 0.0 4.0 0.00 0.00 0.00 92 1027.8
20230129020045 23 303 0.0 4.0 0.00 0.00 0.00 93 1027.7
20230129014540 22 132 0.0 0.0 0.00 0.00 0.00 94 1027.7
20230129013036 23 132 0.0 0.0 0.00 0.00 0.00 95 1027.6
20230129011533 23 131 0.0 0.0 0.00 0.00 0.00 95 1027.6
20230129010032 23 131 0.0 0.0 0.00 0.00 0.00 95 1027.6
20230129004531 24 131 0.0 0.0 0.00 0.00 0.00 94 1027.7
20230129003028 25 131 0.0 0.0 0.00 0.00 0.00 94 1027.8
20230129001527 25 132 0.0 0.0 0.00 0.00 0.00 94 1027.9
20230129000026 24 132 0.0 0.0 0.00 0.00 0.00 94 1027.7
20230128234529 25 131 0.0 0.0 0.00 0.00 0.00 94 1027.7
20230128233023 25 131 0.0 1.0 0.00 0.00 0.00 94 1027.9
20230128231521 25 156 0.0 0.0 0.00 0.00 0.00 94 1027.8
20230128230019 25 157 0.0 0.0 0.00 0.00 0.00 94 1027.7
20230128224524 25 163 0.0 0.0 0.00 0.00 0.00 94 1027.8
20230128223022 25 163 0.0 0.0 0.00 0.00 0.00 93 1027.7
20230128221517 25 161 0.0 0.0 0.00 0.00 0.00 93 1027.7
20230128220025 25 161 0.0 0.0 0.00 0.00 0.00 93 1027.6
20230128214517 25 161 0.0 0.0 0.00 0.00 0.00 93 1027.5
20230128213014 25 161 0.0 0.0 0.00 0.00 0.00 93 1027.4
20230128211527 25 161 0.0 0.0 0.00 0.00 0.00 93 1027.3
20230128210014 25 161 0.0 0.0 0.00 0.00 0.00 93 1027.3
20230128204519 25 161 0.0 0.0 0.00 0.00 0.00 93 1027.1
20230128203011 25 161 0.0 0.0 0.00 0.00 0.00 93 1027.1
20230128201512 25 161 0.0 0.0 0.00 0.00 0.00 93 1026.9
20230128200011 26 161 0.0 0.0 0.00 0.00 0.00 93 1026.9
20230128194509 25 155 0.0 0.0 0.00 0.00 0.00 93 1026.9